Location: Vancouver
(49.2500°N, 123.1330°W)
Time: 12:13:37
(UTC-08:00)

A-11 Canister half - Visible Passes

Search period start: 19 December 2014 00:00
Search period end: 29 December 2014 00:00
Orbit: 1525 x 1685 km, 47.3° (Epoch: 18 December)

Date Brightness Start Highest point End Pass type
(mag) Time Alt. Az. Time Alt. Az. Time Alt. Az.
19 Dec 10.1 17:34:47 10° S 17:42:34 27° SE 17:48:37 15° E visible
19 Dec 9.1 19:36:31 10° SW 19:46:17 61° SSE 19:46:56 60° SE visible
19 Dec 10.4 21:41:01 10° W 21:45:15 30° W 21:45:15 30° W visible
20 Dec 10.2 17:13:30 10° S 17:21:06 26° SE 17:28:24 11° E visible
20 Dec 9.2 19:15:01 10° SW 19:24:45 60° SSE 19:26:42 52° ESE visible
20 Dec 10.0 21:19:28 10° W 21:25:01 39° WSW 21:25:01 39° WSW visible
21 Dec 10.3 16:52:15 10° S 16:59:38 25° SE 17:07:08 10° E visible
21 Dec 9.3 18:53:32 10° SW 19:03:12 58° SSE 19:06:27 43° E visible
21 Dec 9.6 20:57:54 10° W 21:04:46 50° WSW 21:04:46 50° WSW visible
21 Dec 11.3 23:02:59 10° W 23:03:05 10° W 23:03:05 10° W visible
22 Dec 9.3 18:32:04 10° SW 18:41:40 56° SSE 18:46:11 34° E visible
22 Dec 9.3 20:36:21 10° W 20:44:30 64° WSW 20:44:30 64° WSW visible
22 Dec 11.0 22:41:24 10° W 22:42:48 15° W 22:42:48 15° W visible
23 Dec 9.4 18:10:36 10° SW 18:20:08 55° SSE 18:25:53 27° E visible
23 Dec 9.0 20:14:48 10° WSW 20:24:12 77° SW 20:24:12 77° SW visible
23 Dec 10.8 22:19:50 10° W 22:22:30 21° W 22:22:30 21° W visible
24 Dec 9.5 17:49:08 10° SW 17:58:36 53° SSE 18:05:34 21° E visible
24 Dec 8.9 19:53:15 10° WSW 20:03:17 80° S 20:03:53 77° SE visible
24 Dec 10.5 21:58:16 10° W 22:02:11 28° W 22:02:11 28° W visible
25 Dec 9.5 17:27:41 10° SW 17:37:05 52° SSE 17:45:15 15° E visible
25 Dec 9.0 19:31:42 10° WSW 19:41:42 79° S 19:43:33 64° ESE visible
25 Dec 10.2 21:36:43 10° W 21:41:52 36° W 21:41:52 36° W visible
26 Dec 9.6 17:06:14 10° SW 17:15:33 50° SSE 17:24:55 11° ENE visible
26 Dec 9.1 19:10:09 10° WSW 19:20:08 79° S 19:23:14 51° E visible
26 Dec 9.8 21:15:09 10° W 21:21:32 45° W 21:21:32 45° W visible
27 Dec 9.7 16:44:48 10° SW 16:54:02 48° SSE 17:03:32 10° ENE visible
27 Dec 9.1 18:48:37 10° WSW 18:58:34 78° S 19:02:54 40° E visible
27 Dec 9.5 20:53:35 10° W 21:01:12 57° WSW 21:01:12 57° WSW visible
27 Dec 11.2 22:58:45 10° WNW 22:59:31 13° W 22:59:31 13° W visible
28 Dec 9.1 18:27:05 10° WSW 18:37:00 77° S 18:42:34 32° E visible
28 Dec 9.2 20:32:02 10° W 20:40:53 69° WSW 20:40:53 69° WSW visible
28 Dec 11.0 22:37:10 10° WNW 22:39:11 17° W 22:39:11 17° W visible
